Back to catalog

STARLINK-6338

AliveCommunicationsVLEO
NORAD 57364·PAYLOAD·🇺🇸 United States

Launched Jul 16, 2023 from Cape Canaveral Space Force Station

Loading…

Next Passes (next 24 hours)

TLE

FreshSource: CelesTrak SupGP

Epoch: Sep 14, 2026, 22:09 UTC

1 57364C 23099AN  26257.92340278  .00035306  00000+0  12791-2 0  2570
2 57364  43.0003 252.7706 0001522 263.5377  62.3955 15.27552606    19

Track STARLINK-6338 in real time with AllMySat

Download on the App Store